Location: Unspecified
(0.0000°N, 0.0000°E)
Time: 13:46:44
(UTC+00:00)

Transit 4A - Pass Details

Date: 23 November 2019
Orbit: 870 x 975 km, 66.8° (Epoch: 08 December)

Event Time Altitude Azimuth Distance (km) Brightness Sun altitude
Rises 19:03:11 0° 195° (SSW) 3,667 11.5 -17.9°
Reaches altitude 10° 19:05:46 10° 193° (SSW) 2,720 10.8 -18.5°
Maximum altitude 19:12:07 71° 109° (ESE) 1,024 7.9 -20.0°
Enters shadow 19:15:23 30° 33° (NNE) 1,649 8.8 -20.8°
Drops below altitude 10° 19:18:23 10° 26° (NNE) 2,683 - -21.5°
Sets 19:20:55 0° 24° (NNE) 3,615 - -22.1°
